Eau Claire, WI

1:13 PM CST on February 26, 2017 (GMT -0600)
Chippewa Valley Regional

Weather History for KEAU - January, 2013

Change the Weather History Date:

Friday, January 11, 2013

  Actual Average Record
Temperature  
Mean Temperature 38 °F 14 °F  
Max Temperature 42 °F 23 °F 46 °F (1980)
Min Temperature 34 °F 5 °F -31 °F (1979)
Degree Days  
Heating Degree Days 27 51  
Month to date heating degree days 498 556  
Since 1 July heating degree days 3525 3732  
Cooling Degree Days 0 0  
Month to date cooling degree days 0 0  
Year to date cooling degree days 0 0  
Moisture  
Dew Point 36 °F    
Average Humidity 96    
Maximum Humidity 100    
Minimum Humidity 92    
Precipitation  
Precipitation 0.00 in 0.03 in 0.26 in (1938)
Month to date precipitation 0.23 0.30  
Year to date precipitation 0.23 0.30  
Snow  
Snow 0.00 in 0.40 in 3.00 in (1971)
Month to date snowfall 0.1 4.2  
Since 1 July snowfall 21.9 20.0  
Snow Depth 2.00 in    
Sea Level Pressure  
Sea Level Pressure 29.57 in    
Wind  
Wind Speed 8 mph (SSE)    
Max Wind Speed 14 mph    
Max Gust Speed 18 mph    
Visibility 2 miles    
Events Fog    
T = Trace of Precipitation, MM = Missing Value Source: NWS Daily Summary

Daily Weather History Graph

Daily Weather History Graph

Search for Another Location

Airport or City:

Trip Planner

Search our weather history database for the weather conditions in past years. The results will help you decide how hot, cold, wet, or windy it might be!

Date:

Astronomy

Jan. 11, 2013 Rise Set
Actual Time 7:41 AM CST 4:46 PM CST
Civil Twilight 7:09 AM CST 5:19 PM CST
Nautical Twilight 6:32 AM CST 5:55 PM CST
Astronomical Twilight 5:57 AM CST 6:31 PM CST
Moon 7:13 AM CST (1/11) 5:07 PM CST (1/11)
Length of Visible Light 10h 10m
Length of Day
9h 04m
Waning Crescent, 0% of the Moon is Illuminated
Jan 11
Waning Crescent
Jan 11
New
Jan 18
First Quarter
Jan 26
Full
Feb 3
Last Quarter

Hourly Weather History & Observations

Time (CST) Temp. Windchill Dew Point Humidity Pressure Visibility Wind Dir Wind Speed Gust Speed Precip Events Conditions
12:37 AM 33.8 °F 25.8 °F 33.8 °F 100% 29.75 in 2.5 mi SE 10.4 mph - N/A   Overcast
12:56 AM 34.0 °F 28.8 °F 33.1 °F 96% 29.77 in 2.0 mi SSE 5.8 mph - N/A   Overcast
1:09 AM 33.8 °F 29.6 °F 33.8 °F 100% 29.74 in 1.8 mi SSE 4.6 mph - N/A   Overcast
1:51 AM 33.8 °F 27.7 °F 33.8 °F 100% 29.72 in 2.0 mi SE 6.9 mph - N/A   Overcast
1:56 AM 34.0 °F 28.0 °F 33.1 °F 96% 29.74 in 2.0 mi SE 6.9 mph - N/A   Overcast
2:56 AM 34.0 °F 28.0 °F 33.1 °F 96% 29.74 in 2.5 mi SSE 6.9 mph - N/A   Overcast
3:40 AM 33.8 °F 28.6 °F 33.8 °F 100% 29.68 in 3.0 mi SSE 5.8 mph - N/A   Overcast
3:56 AM 34.0 °F 28.8 °F 33.1 °F 96% 29.70 in 4.0 mi SSE 5.8 mph - N/A   Overcast
4:56 AM 34.0 °F 28.0 °F 33.1 °F 96% 29.65 in 5.0 mi SSE 6.9 mph - N/A   Overcast
5:56 AM 34.0 °F 28.8 °F 33.1 °F 96% 29.65 in 5.0 mi South 5.8 mph - N/A   Overcast
6:25 AM 33.8 °F 30.8 °F 33.8 °F 100% 29.61 in 2.0 mi SSE 3.5 mph - N/A   Overcast
6:32 AM 33.8 °F 30.8 °F 33.8 °F 100% 29.61 in 1.2 mi SE 3.5 mph - N/A   Overcast
6:44 AM 33.8 °F 29.6 °F 33.8 °F 100% 29.60 in 0.8 mi SE 4.6 mph - N/A   Mist
6:56 AM 34.0 °F 31.0 °F 34.0 °F 100% 29.64 in 0.8 mi South 3.5 mph - N/A   Mist
7:52 AM 33.8 °F 28.6 °F 33.8 °F 100% 29.61 in 0.2 mi SSE 5.8 mph - N/A Fog Fog
7:56 AM 34.0 °F 29.8 °F 34.0 °F 100% 29.64 in 0.2 mi SSE 4.6 mph - N/A Fog Fog
8:15 AM 33.8 °F 27.7 °F 33.8 °F 100% 29.60 in 0.5 mi South 6.9 mph - N/A Fog Fog
8:38 AM 35.6 °F 30.7 °F 33.8 °F 93% 29.60 in 0.2 mi South 5.8 mph - N/A Fog Fog
8:56 AM 35.1 °F 32.2 °F 35.1 °F 100% 29.61 in 0.8 mi SE 3.5 mph - N/A   Overcast
9:04 AM 35.6 °F 31.7 °F 35.6 °F 100% 29.59 in 1.5 mi South 4.6 mph - N/A   Overcast
9:56 AM 36.0 °F 29.6 °F 35.1 °F 97% 29.61 in 1.0 mi SSE 8.1 mph - N/A   Overcast
10:03 AM 35.6 °F 29.9 °F 35.6 °F 100% 29.60 in 3.0 mi South 6.9 mph - N/A   Overcast
10:32 AM 35.6 °F 29.9 °F 35.6 °F 100% 29.59 in 2.0 mi South 6.9 mph - N/A   Overcast
10:56 AM 36.0 °F 33.3 °F 36.0 °F 100% 29.60 in 1.2 mi SSE 3.5 mph - N/A   Overcast
11:40 AM 35.6 °F 31.7 °F 35.6 °F 100% 29.57 in 0.8 mi SSE 4.6 mph - N/A   Overcast
11:56 AM 36.0 °F 32.1 °F 36.0 °F 100% 29.60 in 0.8 mi South 4.6 mph - N/A   Overcast
12:01 PM 37.4 °F 33.8 °F 35.6 °F 93% 29.57 in 2.0 mi South 4.6 mph - N/A   Overcast
12:09 PM 37.4 °F 34.9 °F 35.6 °F 93% 29.56 in 4.0 mi South 3.5 mph - N/A   Overcast
12:56 PM 37.0 °F 31.6 °F 36.0 °F 96% 29.57 in 6.0 mi South 6.9 mph - N/A   Overcast
1:56 PM 37.0 °F 32.4 °F 36.0 °F 96% 29.55 in 2.0 mi SE 5.8 mph - N/A   Overcast
2:04 PM 37.4 °F 32.8 °F 35.6 °F 93% 29.53 in 1.5 mi SSE 5.8 mph - N/A   Overcast
2:56 PM 37.0 °F 31.6 °F 36.0 °F 96% 29.55 in 1.5 mi SSE 6.9 mph - N/A   Overcast
3:31 PM 37.4 °F 32.8 °F 37.4 °F 100% 29.52 in 2.0 mi SE 5.8 mph - N/A   Overcast
3:43 PM 37.4 °F 32.1 °F 35.6 °F 93% 29.52 in 1.5 mi SSE 6.9 mph - N/A   Overcast
3:56 PM 37.0 °F 31.6 °F 36.0 °F 96% 29.55 in 0.8 mi SSE 6.9 mph - N/A   Overcast
4:24 PM 37.4 °F 31.4 °F 35.6 °F 93% 29.52 in 1.0 mi SSE 8.1 mph - N/A   Overcast
4:56 PM 37.0 °F 29.8 °F 36.0 °F 96% 29.53 in 1.5 mi SSE 10.4 mph - N/A   Overcast
4:58 PM 37.4 °F 30.3 °F 35.6 °F 93% 29.50 in 3.0 mi SE 10.4 mph - N/A   Overcast
5:56 PM 37.9 °F 30.5 °F 37.0 °F 97% 29.51 in 6.0 mi SSE 11.5 mph - N/A   Overcast
6:56 PM 39.0 °F 32.8 °F 37.9 °F 96% 29.50 in 3.0 mi SSE 9.2 mph - N/A   Overcast
7:13 PM 39.2 °F 33.0 °F 37.4 °F 93% 29.47 in 2.0 mi SSE 9.2 mph - N/A   Overcast
7:56 PM 39.0 °F 31.4 °F 39.0 °F 100% 29.48 in 2.5 mi SSE 12.7 mph - N/A   Overcast
8:09 PM 39.2 °F 32.0 °F 39.2 °F 100% 29.45 in 1.2 mi SSE 11.5 mph - N/A   Overcast
8:56 PM 39.0 °F 34.0 °F 39.0 °F 100% 29.47 in 1.0 mi South 6.9 mph - N/A   Overcast
9:25 PM 39.2 °F 32.5 °F 39.2 °F 100% 29.44 in 2.0 mi SSE 10.4 mph - N/A   Overcast
9:41 PM 39.2 °F 32.0 °F 39.2 °F 100% 29.43 in 3.0 mi South 11.5 mph - N/A   Overcast
9:56 PM 39.9 °F 32.5 °F 39.9 °F 100% 29.45 in 4.0 mi South 12.7 mph - N/A   Overcast
10:15 PM 39.2 °F 32.0 °F 39.2 °F 100% 29.42 in 4.0 mi SSE 11.5 mph - N/A   Overcast
10:22 PM 39.2 °F 32.0 °F 39.2 °F 100% 29.41 in 4.0 mi SSE 11.5 mph - N/A   Overcast
10:43 PM 41.0 °F 33.9 °F 39.2 °F 93% 29.41 in 5.0 mi SSE 12.7 mph - N/A   Overcast
10:56 PM 41.0 °F 33.9 °F 39.9 °F 96% 29.43 in 6.0 mi South 12.7 mph - N/A   Overcast